FW3192 Weather Reports


Display with metric or nautical units.
time (UTC)temp
F
wind
direction
speed
MPH
gust
MPH
rain 1hr
in
rain 24hr
in
rain mn
in
humidity
%
barometer
mb
20260901114534 57 294 3.0 4.0 0.00 0.12 0.00 90 1016.0
20260901113029 58 302 1.0 3.0 0.00 0.12 0.00 90 1015.8
20260901111527 58 284 0.0 1.0 0.00 0.12 0.00 89 1015.7
20260901110025 59 282 0.0 2.0 0.00 0.12 0.12 90 1015.7
20260901104530 58 244 1.0 5.0 0.00 0.12 0.12 90 1015.6
20260901103024 58 249 0.0 4.0 0.00 0.12 0.12 90 1015.7
20260901101524 58 244 0.0 6.0 0.00 0.12 0.12 90 1015.5
20260901100010 58 205 5.0 10.0 0.00 0.12 0.12 91 1015.2
20260901094509 57 218 0.0 7.0 0.00 0.12 0.12 91 1014.9
20260901093008 57 2 3.0 5.0 0.00 0.12 0.12 90 1014.4
20260901091509 58 3 3.0 7.0 0.01 0.12 0.12 89 1014.0
20260901090008 58 17 5.0 9.0 0.01 0.12 0.12 89 1013.9
20260901084506 58 344 5.0 10.0 0.01 0.12 0.12 89 1013.9
20260901083013 58 1 9.0 13.0 0.01 0.12 0.12 89 1013.7
20260901081508 58 36 6.0 8.0 0.00 0.11 0.11 89 1014.1
20260901080105 58 38 5.0 7.0 0.02 0.11 0.11 89 1014.2
20260901074554 58 69 0.0 7.0 0.04 0.11 0.11 89 1013.9
20260901073049 59 37 5.0 8.0 0.09 0.11 0.11 88 1013.6
20260901071549 59 64 2.0 14.0 0.11 0.11 0.11 87 1013.5
20260901070048 59 17 4.0 6.0 0.09 0.09 0.09 87 1014.2
20260901064546 59 279 1.0 10.0 0.07 0.07 0.07 86 1014.5
20260901063048 61 244 5.0 17.0 0.02 0.02 0.02 82 1014.9
20260901061543 61 273 7.0 14.0 0.00 0.00 0.00 81 1015.0
20260901060043 64 251 12.0 17.0 0.00 0.00 0.00 74 1014.9
20260901054528 66 247 10.0 16.0 0.00 0.00 0.00 70 1014.7
20260901053027 69 265 9.0 22.0 0.00 0.00 0.00 61 1014.1
20260901051535 68 275 6.0 10.0 0.00 0.00 0.00 64 1013.9
20260901050025 69 298 7.0 11.0 0.00 0.00 0.00 63 1013.8
20260901044527 69 322 5.0 15.0 0.00 0.00 0.00 65 1013.7
20260901043025 70 296 9.0 15.0 0.00 0.00 0.00 62 1013.9
20260901041544 70 310 10.0 17.0 0.00 0.00 0.00 61 1013.9
20260901040020 70 303 11.0 17.0 0.00 0.00 0.00 59 1014.0
20260901034503 69 325 10.0 18.0 0.00 0.00 0.00 61 1014.2
20260901033101 69 325 13.0 19.0 0.00 0.00 0.00 61 1014.2
20260901031602 68 315 14.0 23.0 0.00 0.00 0.00 60 1014.6
20260901030057 69 308 14.0 25.0 0.00 0.00 0.00 61 1015.0
20260901024553 69 315 16.0 24.0 0.00 0.00 0.00 60 1015.0
20260901023049 68 339 14.0 20.0 0.00 0.00 0.00 63 1015.2
20260901021545 66 325 11.0 17.0 0.00 0.00 0.00 66 1015.8
20260901020042 64 323 10.0 15.0 0.00 0.00 0.00 66 1016.2
20260901014540 64 337 12.0 19.0 0.00 0.00 0.00 66 1015.9
20260901013026 64 329 14.0 20.0 0.00 0.00 0.00 64 1015.9
20260901011528 64 1 10.0 16.0 0.00 0.00 0.00 66 1016.5
20260901010021 63 334 10.0 14.0 0.00 0.00 0.00 66 1016.7
20260901004521 63 342 10.0 16.0 0.00 0.00 0.00 68 1016.8
20260901003022 63 329 10.0 18.0 0.00 0.00 0.00 67 1016.8
20260901001517 64 312 10.0 20.0 0.00 0.00 0.00 65 1017.1
20260901000017 63 323 11.0 16.0 0.00 0.00 0.00 66 1017.2
20260831234615 62 350 7.0 12.0 0.00 0.00 0.00 73 1017.4
20260831233103 59 7 6.0 9.0 0.00 0.00 0.00 76 1017.6
20260831231547 57 35 5.0 9.0 0.00 0.00 0.00 76 1017.6
20260831230045 57 16 7.0 11.0 0.00 0.00 0.00 75 1017.5
20260831224541 56 28 8.0 11.0 0.00 0.00 0.00 75 1017.6
20260831223037 56 28 8.0 12.0 0.00 0.00 0.00 75 1017.8
20260831221537 55 14 7.0 11.0 0.00 0.00 0.00 76 1018.0
20260831220033 54 36 6.0 10.0 0.00 0.01 0.00 78 1018.2
20260831214521 52 46 5.0 7.0 0.00 0.01 0.00 81 1018.1
20260831213015 51 48 4.0 6.0 0.00 0.01 0.00 82 1018.1
20260831211558 50 40 5.0 8.0 0.00 0.01 0.00 83 1018.1
20260831210057 50 41 5.0 7.0 0.00 0.01 0.00 82 1018.1
20260831204607 50 47 5.0 6.0 0.00 0.01 0.00 82 1018.1
20260831203055 51 31 5.0 7.0 0.00 0.01 0.00 80 1018.2
20260831201554 51 59 5.0 8.0 0.00 0.01 0.00 80 1018.3
20260831200055 50 43 5.0 7.0 0.00 0.01 0.00 82 1018.3
20260831194557 50 50 5.0 7.0 0.00 0.01 0.00 82 1018.4
20260831193050 50 36 7.0 10.0 0.00 0.01 0.00 81 1018.4
20260831191540 50 42 6.0 12.0 0.00 0.01 0.00 81 1018.4
20260831190033 50 24 8.0 14.0 0.00 0.01 0.00 81 1018.5
20260831184522 50 50 6.0 8.0 0.00 0.01 0.00 82 1018.6
20260831183020 49 46 4.0 7.0 0.00 0.01 0.00 83 1018.8
20260831181518 49 56 5.0 7.0 0.00 0.01 0.00 82 1019.0
20260831180022 49 43 6.0 9.0 0.00 0.01 0.00 82 1019.2
20260831174520 49 33 7.0 10.0 0.00 0.01 0.00 83 1019.2
20260831173014 49 33 6.0 9.0 0.00 0.01 0.00 84 1019.4
20260831171551 49 48 6.0 8.0 0.00 0.01 0.00 83 1019.6
20260831170054 49 51 6.0 8.0 0.00 0.01 0.00 83 1019.8
20260831164530 49 36 6.0 10.0 0.00 0.01 0.00 82 1020.1
20260831163028 50 40 7.0 10.0 0.00 0.01 0.00 82 1020.2
20260831161507 49 47 7.0 10.0 0.00 0.01 0.00 82 1020.5
20260831160005 49 45 6.0 9.0 0.00 0.01 0.00 83 1020.7
20260831154553 50 44 6.0 9.0 0.00 0.01 0.00 82 1021.1
20260831153143 50 33 6.0 9.0 0.00 0.01 0.00 81 1021.3
20260831151541 50 40 6.0 9.0 0.00 0.01 0.00 81 1021.5
20260831150050 50 36 7.0 10.0 0.00 0.01 0.00 81 1021.5
20260831144536 50 36 6.0 9.0 0.00 0.01 0.00 82 1021.6
20260831143039 50 21 7.0 9.0 0.00 0.01 0.00 82 1021.9
20260831141530 50 41 5.0 7.0 0.00 0.01 0.00 83 1022.1
20260831140030 50 37 5.0 7.0 0.00 0.01 0.00 84 1022.3
20260831134520 50 36 3.0 5.0 0.00 0.01 0.00 85 1022.5
20260831133007 50 45 2.0 5.0 0.00 0.01 0.00 84 1022.8
20260831131504 50 33 4.0 7.0 0.00 0.01 0.00 83 1023.1
20260831130001 51 36 2.0 7.0 0.00 0.01 0.00 83 1023.2
20260831124602 51 38 5.0 7.0 0.00 0.01 0.00 82 1023.3
20260831123055 52 45 4.0 8.0 0.00 0.01 0.00 80 1023.4
20260831121557 53 28 7.0 11.0 0.00 0.01 0.00 79 1023.4
20260831120050 53 23 6.0 8.0 0.00 0.01 0.00 80 1023.4